{"data":{"norad_id":66809,"intl_designator":"2025-278U","name":"STARLINK-35979","alt_names":[],"object_type":"PAYLOAD","status":"ACTIVE","operator":null,"country":"US","launch_date":"2025-12-01","launch_site_code":"AFETR","launch_vehicle":null,"mission":null,"orbit_class":"UNKNOWN","rcs_meters":null,"size_class":null,"mass_kg":null,"dimensions":null,"purposes":["comms"],"wikipedia_slug":null,"has_3d_model":false,"image_url":null,"decayed_at":null,"tle_current":{"epoch":"2026-05-24T23:41:40.655904Z","epoch_age_seconds":75895,"freshness":"FRESH","line1":"1 66809U 25278U   26144.98727611  .00014553  00000+0  53711-3 0  9998","line2":"2 66809  43.0017  43.8346 0001371 257.8308 102.2391 15.27592520 26878","mean_motion":15.2759252,"eccentricity":0.0001371,"inclination_deg":43.0017,"raan_deg":43.8346,"arg_perigee_deg":257.8308,"mean_anomaly_deg":102.2391,"bstar":0.00053711,"rev_number":2687,"period_min":94.26597611253,"perigee_km":482.07094343765,"apogee_km":483.95227038566,"semimajor_km":6861.1486069117,"source":"CELESTRAK","updated_at":"2026-05-25T13:38:21.330550Z"}}}